カタログに戻る

STARLINK-34964

運用中通信SSO
NORAD 65239·PAYLOAD·🇺🇸 United States

打ち上げ Aug 18, 2025 から Vandenberg Space Force Base

Loading…

次のパス (今後24時間)

TLE

最新Source: CelesTrak SupGP

元期: Sep 15, 2026, 03:18 UTC

1 65239C 25179E   26258.13798611 -.00004086  00000+0 -12684-3 0  2589
2 65239  97.2834 297.5749 0000922  83.2370 287.1869 15.33440066    13

AllMySatでSTARLINK-34964をリアルタイム追跡

Download on the App Store